Regional Weather Roundup
Issued by NWS

Home | Current Version | Previous Version | Graphics & Text | Print | Product List | Glossary On
Versions: 1 2 3 4 5 6 7 8 9 10 11 12 13 14 15 16 17 18 19 20 21 22 23 24 25 26 27 28 29 30 31 32 33 34 35 36 37 38 39 40 41 42 43 44 45 46 47 48 49 50
000
ASUS43 KBIS 272302
RWRND

NORTH DAKOTA REGIONAL WEATHER ROUNDUP
NATIONAL WEATHER SERVICE BISMARCK ND
600 PM CDT THU AUG 27 2015

NOTE: "FAIR" INDICATES FEW OR NO CLOUDS BELOW 12,000 FEET WITH NO
SIGNIFICANT WEATHER AND/OR OBSTRUCTIONS TO VISIBILITY.


NDZ001>003-009>011-017-280000-
NORTHWEST NORTH DAKOTA

CITY           SKY/WX    TMP DP  RH WIND       PRES   REMARKS
WILLISTON      MOSUNNY   86  62  44 S7        29.88F
MINOT          MOSUNNY   82  65  56 SE5       29.88F
MINOT AFB      MOSUNNY   83  67  58 S6        29.87F
$$

NDZ018>021-031>035-040>046-280000-
SOUTHWEST NORTH DAKOTA

CITY           SKY/WX    TMP DP  RH WIND       PRES   REMARKS
BISMARCK       MOSUNNY   85  66  53 SE9       29.92S
DICKINSON      SUNNY     87  57  35 E12       29.91S
GARRISON         N/A     83  62  49 CALM      29.90F
HETTINGER ARPT SUNNY     84  59  42 SE14G20   29.94S
$$

NDZ004>008-012>016-024-026-027-054-280000-
NORTHEAST NORTH DAKOTA

CITY           SKY/WX    TMP DP  RH WIND       PRES   REMARKS
GRAND FORKS    PTSUNNY   77  64  64 S8        29.90F
GRND FRKS AFB  PTSUNNY   77  65  66 S6        29.91F
DEVILS LAKE    PTSUNNY   77  61  57 S7        29.91S
$$

NDZ022-023-025-028>030-036>039-047>053-280000-
SOUTHEAST NORTH DAKOTA

CITY           SKY/WX    TMP DP  RH WIND       PRES   REMARKS
FARGO          CLOUDY    79  65  62 S7        29.92S
JAMESTOWN      MOSUNNY   78  67  68 S5        29.93F
$$




USA.gov is the U.S. government's official web portal to all federal, state and local government web resources and services.